| time (UTC) | temp F | wind direction | speed MPH | gust MPH | rain 1hr in | rain 24hr in | rain mn in | humidity % | barometer mb |
| 20260906225849 | 74 | 286 | 7.0 | 10.0 | 0.00 | 0.00 | 0.00 | 29 | 1021.8 |
| 20260906225345 | 74 | 272 | 6.0 | 9.0 | 0.00 | 0.00 | 0.00 | 29 | 1021.8 |
| 20260906224840 | 75 | 235 | 4.0 | 7.0 | 0.00 | 0.00 | 0.00 | 29 | 1021.8 |
| 20260906224337 | 75 | 271 | 7.0 | 9.0 | 0.00 | 0.00 | 0.00 | 28 | 1021.8 |
| 20260906223833 | 75 | 227 | 6.0 | 8.0 | 0.00 | 0.00 | 0.00 | 29 | 1021.8 |
| 20260906223329 | 75 | 272 | 10.0 | 14.0 | 0.00 | 0.00 | 0.00 | 28 | 1021.7 |
| 20260906222827 | 75 | 280 | 7.0 | 8.0 | 0.00 | 0.00 | 0.00 | 28 | 1021.8 |
| 20260906222321 | 75 | 257 | 6.0 | 9.0 | 0.00 | 0.00 | 0.00 | 29 | 1021.8 |
| 20260906221819 | 76 | 296 | 9.0 | 11.0 | 0.00 | 0.00 | 0.00 | 26 | 1021.5 |
| 20260906221318 | 76 | 277 | 8.0 | 9.0 | 0.00 | 0.00 | 0.00 | 26 | 1021.9 |
| 20260906220814 | 76 | 222 | 10.0 | 14.0 | 0.00 | 0.00 | 0.00 | 25 | 1021.9 |
| 20260906220309 | 77 | 281 | 8.0 | 9.0 | 0.00 | 0.00 | 0.00 | 24 | 1021.9 |
| 20260906215807 | 77 | 231 | 4.0 | 10.0 | 0.00 | 0.00 | 0.00 | 24 | 1021.9 |
| 20260906215306 | 78 | 259 | 6.0 | 8.0 | 0.00 | 0.00 | 0.00 | 24 | 1021.9 |
| 20260906214801 | 77 | 293 | 4.0 | 7.0 | 0.00 | 0.00 | 0.00 | 23 | 1022.0 |
| 20260906214256 | 78 | 264 | 10.0 | 11.0 | 0.00 | 0.00 | 0.00 | 22 | 1021.7 |
| 20260906213755 | 78 | 215 | 5.0 | 8.0 | 0.00 | 0.00 | 0.00 | 23 | 1021.9 |
| 20260906213254 | 79 | 280 | 8.0 | 10.0 | 0.00 | 0.00 | 0.00 | 23 | 1022.2 |
| 20260906212752 | 79 | 276 | 6.0 | 8.0 | 0.00 | 0.00 | 0.00 | 23 | 1022.0 |
| 20260906212248 | 78 | 222 | 2.0 | 2.0 | 0.00 | 0.00 | 0.00 | 23 | 1021.9 |
| 20260906211747 | 81 | 12 | 0.0 | 0.0 | 0.00 | 0.00 | 0.00 | 23 | 1022.3 |
| 20260906211242 | 81 | 190 | 2.0 | 3.0 | 0.00 | 0.00 | 0.00 | 23 | 1022.3 |
| 20260906210738 | 81 | 218 | 4.0 | 6.0 | 0.00 | 0.00 | 0.00 | 24 | 1022.2 |
| 20260906210232 | 80 | 170 | 4.0 | 4.0 | 0.00 | 0.00 | 0.00 | 22 | 1022.2 |
| 20260906205727 | 80 | 207 | 3.0 | 3.0 | 0.00 | 0.00 | 0.00 | 24 | 1022.3 |
| 20260906205224 | 79 | 195 | 2.0 | 2.0 | 0.00 | 0.00 | 0.00 | 23 | 1022.2 |
| 20260906204724 | 80 | 211 | 4.0 | 4.0 | 0.00 | 0.00 | 0.00 | 23 | 1022.5 |
| 20260906204223 | 80 | 296 | 2.0 | 2.0 | 0.00 | 0.00 | 0.00 | 24 | 1022.4 |
| 20260906203723 | 81 | 162 | 2.0 | 2.0 | 0.00 | 0.00 | 0.00 | 24 | 1022.5 |
| 20260906203218 | 79 | 131 | 2.0 | 3.0 | 0.00 | 0.00 | 0.00 | 24 | 1022.5 |
| 20260906202715 | 79 | 89 | 2.0 | 2.0 | 0.00 | 0.00 | 0.00 | 23 | 1022.5 |
| 20260906202214 | 79 | 169 | 0.0 | 0.0 | 0.00 | 0.00 | 0.00 | 25 | 1022.8 |
| 20260906201709 | 78 | 245 | 2.0 | 2.0 | 0.00 | 0.00 | 0.00 | 26 | 1022.6 |
| 20260906201209 | 78 | 86 | 2.0 | 3.0 | 0.00 | 0.00 | 0.00 | 26 | 1022.5 |
| 20260906200705 | 78 | 357 | 2.0 | 3.0 | 0.00 | 0.00 | 0.00 | 25 | 1022.8 |
| 20260906200200 | 78 | 357 | 3.0 | 3.0 | 0.00 | 0.00 | 0.00 | 24 | 1022.6 |
| 20260906195655 | 78 | 195 | 1.0 | 1.0 | 0.00 | 0.00 | 0.00 | 25 | 1022.6 |
| 20260906195152 | 76 | 67 | 1.0 | 2.0 | 0.00 | 0.00 | 0.00 | 26 | 1022.9 |
| 20260906194648 | 76 | 346 | 3.0 | 3.0 | 0.00 | 0.00 | 0.00 | 27 | 1023.0 |
| 20260906194143 | 75 | 170 | 0.0 | 0.0 | 0.00 | 0.00 | 0.00 | 28 | 1023.0 |
| 20260906193638 | 76 | 49 | 4.0 | 6.0 | 0.00 | 0.00 | 0.00 | 26 | 1022.8 |
| 20260906193128 | 77 | 323 | 4.0 | 4.0 | 0.00 | 0.00 | 0.00 | 28 | 1023.0 |
| 20260906192624 | 78 | 82 | 0.0 | 1.0 | 0.00 | 0.00 | 0.00 | 27 | 1023.0 |
| 20260906192122 | 79 | 187 | 2.0 | 2.0 | 0.00 | 0.00 | 0.00 | 25 | 1023.1 |
| 20260906191618 | 77 | 171 | 3.0 | 3.0 | 0.00 | 0.00 | 0.00 | 26 | 1023.4 |
| 20260906191116 | 77 | 133 | 3.0 | 4.0 | 0.00 | 0.00 | 0.00 | 26 | 1023.4 |
| 20260906190611 | 77 | 24 | 2.0 | 3.0 | 0.00 | 0.00 | 0.00 | 27 | 1023.4 |
| 20260906190106 | 77 | 65 | 3.0 | 3.0 | 0.00 | 0.00 | 0.00 | 28 | 1023.4 |
| 20260906185604 | 76 | 58 | 2.0 | 3.0 | 0.00 | 0.00 | 0.00 | 26 | 1023.6 |
| 20260906185104 | 76 | 327 | 5.0 | 7.0 | 0.00 | 0.00 | 0.00 | 27 | 1023.4 |
| 20260906184558 | 76 | 1 | 4.0 | 6.0 | 0.00 | 0.00 | 0.00 | 27 | 1023.5 |
| 20260906184054 | 77 | 177 | 1.0 | 1.0 | 0.00 | 0.00 | 0.00 | 26 | 1023.7 |
| 20260906183550 | 77 | 168 | 2.0 | 3.0 | 0.00 | 0.00 | 0.00 | 27 | 1023.9 |
| 20260906183045 | 75 | 84 | 2.0 | 2.0 | 0.00 | 0.00 | 0.00 | 26 | 1023.9 |
| 20260906182540 | 75 | 111 | 1.0 | 2.0 | 0.00 | 0.00 | 0.00 | 27 | 1024.1 |
| 20260906182036 | 75 | 0 | 5.0 | 6.0 | 0.00 | 0.00 | 0.00 | 29 | 1024.1 |
| 20260906181531 | 76 | 168 | 1.0 | 1.0 | 0.00 | 0.00 | 0.00 | 29 | 1024.3 |
| 20260906181027 | 75 | 119 | 0.0 | 1.0 | 0.00 | 0.00 | 0.00 | 29 | 1024.2 |
| 20260906180522 | 75 | 97 | 4.0 | 6.0 | 0.00 | 0.00 | 0.00 | 28 | 1024.5 |
| 20260906180021 | 77 | 113 | 5.0 | 6.0 | 0.00 | 0.00 | 0.00 | 26 | 1024.6 |
| 20260906175520 | 75 | 117 | 1.0 | 2.0 | 0.00 | 0.00 | 0.00 | 29 | 1024.8 |
| 20260906175015 | 75 | 78 | 3.0 | 4.0 | 0.00 | 0.00 | 0.00 | 27 | 1025.0 |
| 20260906174513 | 75 | 151 | 1.0 | 1.0 | 0.00 | 0.00 | 0.00 | 27 | 1025.0 |
| 20260906174008 | 76 | 139 | 1.0 | 1.0 | 0.00 | 0.00 | 0.00 | 27 | 1025.2 |
| 20260906173503 | 77 | 106 | 2.0 | 3.0 | 0.00 | 0.00 | 0.00 | 27 | 1025.2 |
| 20260906173003 | 76 | 144 | 2.0 | 3.0 | 0.00 | 0.00 | 0.00 | 30 | 1025.2 |
| 20260906172459 | 76 | 126 | 1.0 | 1.0 | 0.00 | 0.00 | 0.00 | 28 | 1025.2 |
| 20260906171954 | 76 | 120 | 0.0 | 1.0 | 0.00 | 0.00 | 0.00 | 27 | 1025.2 |
| 20260906171448 | 77 | 140 | 1.0 | 1.0 | 0.00 | 0.00 | 0.00 | 28 | 1025.3 |
| 20260906170944 | 76 | 154 | 3.0 | 4.0 | 0.00 | 0.00 | 0.00 | 28 | 1025.4 |
| 20260906170440 | 75 | 152 | 3.0 | 3.0 | 0.00 | 0.00 | 0.00 | 27 | 1025.2 |
| 20260906165937 | 73 | 102 | 2.0 | 2.0 | 0.00 | 0.00 | 0.00 | 28 | 1025.3 |
| 20260906165436 | 75 | 140 | 4.0 | 6.0 | 0.00 | 0.00 | 0.00 | 27 | 1025.2 |
| 20260906164931 | 75 | 161 | 3.0 | 3.0 | 0.00 | 0.00 | 0.00 | 28 | 1025.2 |
| 20260906164430 | 76 | 176 | 1.0 | 2.0 | 0.00 | 0.00 | 0.00 | 28 | 1025.4 |
| 20260906163926 | 75 | 163 | 2.0 | 2.0 | 0.00 | 0.00 | 0.00 | 29 | 1025.6 |
| 20260906163422 | 75 | 172 | 2.0 | 2.0 | 0.00 | 0.00 | 0.00 | 30 | 1025.7 |
| 20260906162920 | 75 | 99 | 2.0 | 2.0 | 0.00 | 0.00 | 0.00 | 32 | 1025.8 |
| 20260906162419 | 73 | 185 | 1.0 | 1.0 | 0.00 | 0.00 | 0.00 | 33 | 1025.7 |
| 20260906161914 | 73 | 168 | 0.0 | 1.0 | 0.00 | 0.00 | 0.00 | 33 | 1025.8 |
| 20260906161414 | 72 | 164 | 0.0 | 0.0 | 0.00 | 0.00 | 0.00 | 32 | 1025.6 |
| 20260906160913 | 72 | 194 | 2.0 | 2.0 | 0.00 | 0.00 | 0.00 | 36 | 1025.9 |
| 20260906160406 | 72 | 242 | 1.0 | 2.0 | 0.00 | 0.00 | 0.00 | 35 | 1025.8 |
| 20260906155904 | 70 | 191 | 1.0 | 1.0 | 0.00 | 0.00 | 0.00 | 35 | 1025.9 |
| 20260906155358 | 71 | 197 | 3.0 | 3.0 | 0.00 | 0.00 | 0.00 | 35 | 1025.9 |
| 20260906154855 | 72 | 169 | 1.0 | 2.0 | 0.00 | 0.00 | 0.00 | 34 | 1025.9 |
| 20260906154349 | 71 | 148 | 1.0 | 2.0 | 0.00 | 0.00 | 0.00 | 34 | 1025.7 |
| 20260906153848 | 70 | 140 | 2.0 | 2.0 | 0.00 | 0.00 | 0.00 | 34 | 1025.9 |
| 20260906153347 | 70 | 124 | 3.0 | 4.0 | 0.00 | 0.00 | 0.00 | 35 | 1026.1 |
| 20260906152843 | 69 | 143 | 2.0 | 3.0 | 0.00 | 0.00 | 0.00 | 34 | 1026.1 |
| 20260906152342 | 68 | 170 | 1.0 | 1.0 | 0.00 | 0.00 | 0.00 | 39 | 1026.1 |
| 20260906151842 | 66 | 162 | 3.0 | 3.0 | 0.00 | 0.00 | 0.00 | 39 | 1026.2 |
| 20260906151338 | 65 | 149 | 3.0 | 3.0 | 0.00 | 0.00 | 0.00 | 40 | 1026.1 |
| 20260906150833 | 64 | 158 | 4.0 | 6.0 | 0.00 | 0.00 | 0.00 | 42 | 1026.2 |
| 20260906150329 | 63 | 175 | 1.0 | 2.0 | 0.00 | 0.00 | 0.00 | 47 | 1026.4 |
| 20260906145827 | 61 | 140 | 4.0 | 4.0 | 0.00 | 0.00 | 0.00 | 50 | 1026.3 |
| 20260906145326 | 61 | 167 | 2.0 | 3.0 | 0.00 | 0.00 | 0.00 | 50 | 1026.4 |
| 20260906144822 | 60 | 150 | 3.0 | 3.0 | 0.00 | 0.00 | 0.00 | 49 | 1026.3 |
| 20260906144316 | 59 | 162 | 1.0 | 1.0 | 0.00 | 0.00 | 0.00 | 53 | 1026.3 |
| 20260906143816 | 58 | 139 | 3.0 | 3.0 | 0.00 | 0.00 | 0.00 | 51 | 1026.4 |
| 20260906143313 | 60 | 143 | 2.0 | 3.0 | 0.00 | 0.00 | 0.00 | 46 | 1026.4 |
| 20260906142808 | 59 | 122 | 2.0 | 2.0 | 0.00 | 0.00 | 0.00 | 48 | 1026.3 |
| 20260906142306 | 58 | 166 | 2.0 | 3.0 | 0.00 | 0.00 | 0.00 | 48 | 1026.3 |
| 20260906141802 | 57 | 176 | 1.0 | 2.0 | 0.00 | 0.00 | 0.00 | 48 | 1026.3 |
| 20260906141256 | 56 | 177 | 2.0 | 2.0 | 0.00 | 0.00 | 0.00 | 51 | 1026.3 |
| 20260906140755 | 55 | 164 | 2.0 | 2.0 | 0.00 | 0.00 | 0.00 | 52 | 1026.3 |
| 20260906140245 | 54 | 168 | 1.0 | 1.0 | 0.00 | 0.00 | 0.00 | 51 | 1026.4 |
| 20260906135742 | 53 | 151 | 1.0 | 1.0 | 0.00 | 0.00 | 0.00 | 54 | 1026.4 |
| 20260906135238 | 52 | 188 | 1.0 | 1.0 | 0.00 | 0.00 | 0.00 | 56 | 1026.2 |
| 20260906134733 | 52 | 189 | 1.0 | 1.0 | 0.00 | 0.00 | 0.00 | 58 | 1026.4 |
| 20260906134228 | 51 | 187 | 1.0 | 1.0 | 0.00 | 0.00 | 0.00 | 56 | 1026.1 |
| 20260906133724 | 51 | 150 | 2.0 | 2.0 | 0.00 | 0.00 | 0.00 | 55 | 1026.2 |
| 20260906133219 | 50 | 177 | 1.0 | 1.0 | 0.00 | 0.00 | 0.00 | 56 | 1026.1 |
| 20260906132714 | 50 | 149 | 1.0 | 1.0 | 0.00 | 0.00 | 0.00 | 56 | 1026.1 |
| 20260906132210 | 50 | 152 | 0.0 | 0.0 | 0.00 | 0.00 | 0.00 | 57 | 1026.2 |
| 20260906131705 | 49 | 180 | 0.0 | 1.0 | 0.00 | 0.00 | 0.00 | 57 | 1026.2 |
| 20260906131200 | 50 | 187 | 1.0 | 2.0 | 0.00 | 0.00 | 0.00 | 56 | 1025.9 |
| 20260906130655 | 50 | 208 | 2.0 | 3.0 | 0.00 | 0.00 | 0.00 | 55 | 1025.7 |
| 20260906130151 | 50 | 195 | 3.0 | 3.0 | 0.00 | 0.00 | 0.00 | 55 | 1025.4 |
| 20260906125648 | 50 | 208 | 4.0 | 4.0 | 0.00 | 0.00 | 0.00 | 56 | 1025.8 |
| 20260906125147 | 50 | 226 | 4.0 | 4.0 | 0.00 | 0.00 | 0.00 | 55 | 1025.8 |
| 20260906124643 | 49 | 181 | 2.0 | 3.0 | 0.00 | 0.00 | 0.00 | 56 | 1025.7 |
| 20260906124138 | 47 | 198 | 2.0 | 3.0 | 0.00 | 0.00 | 0.00 | 59 | 1025.6 |
| 20260906123637 | 53 | 195 | 2.0 | 2.0 | 0.00 | 0.00 | 0.00 | 51 | 1025.8 |
| 20260906123132 | 54 | 215 | 2.0 | 3.0 | 0.00 | 0.00 | 0.00 | 48 | 1025.7 |
| 20260906122631 | 53 | 216 | 4.0 | 4.0 | 0.00 | 0.00 | 0.00 | 49 | 1025.6 |
| 20260906122127 | 51 | 188 | 2.0 | 2.0 | 0.00 | 0.00 | 0.00 | 51 | 1025.6 |
| 20260906121623 | 49 | 179 | 1.0 | 1.0 | 0.00 | 0.00 | 0.00 | 55 | 1025.6 |
| 20260906121120 | 49 | 172 | 1.0 | 2.0 | 0.00 | 0.00 | 0.00 | 56 | 1025.8 |
| 20260906120615 | 49 | 176 | 0.0 | 0.0 | 0.00 | 0.00 | 0.00 | 57 | 1025.6 |
| 20260906120112 | 51 | 179 | 3.0 | 3.0 | 0.00 | 0.00 | 0.00 | 53 | 1025.7 |
| 20260906115606 | 52 | 236 | 2.0 | 3.0 | 0.00 | 0.00 | 0.00 | 52 | 1025.7 |
| 20260906115102 | 52 | 247 | 3.0 | 4.0 | 0.00 | 0.00 | 0.00 | 50 | 1025.6 |
| 20260906114555 | 51 | 186 | 1.0 | 2.0 | 0.00 | 0.00 | 0.00 | 51 | 1025.4 |
| 20260906114051 | 51 | 187 | 0.0 | 1.0 | 0.00 | 0.00 | 0.00 | 52 | 1025.7 |
| 20260906113550 | 51 | 176 | 2.0 | 2.0 | 0.00 | 0.00 | 0.00 | 53 | 1025.7 |
| 20260906113045 | 52 | 216 | 4.0 | 6.0 | 0.00 | 0.00 | 0.00 | 52 | 1025.8 |
| 20260906112540 | 50 | 197 | 2.0 | 2.0 | 0.00 | 0.00 | 0.00 | 53 | 1025.6 |
| 20260906112037 | 46 | 176 | 1.0 | 1.0 | 0.00 | 0.00 | 0.00 | 61 | 1025.7 |
| 20260906111536 | 47 | 171 | 3.0 | 3.0 | 0.00 | 0.00 | 0.00 | 60 | 1025.7 |
| 20260906111032 | 46 | 178 | 1.0 | 2.0 | 0.00 | 0.00 | 0.00 | 61 | 1025.7 |
| 20260906110531 | 48 | 159 | 3.0 | 3.0 | 0.00 | 0.00 | 0.00 | 58 | 1025.6 |
| 20260906110030 | 50 | 177 | 1.0 | 1.0 | 0.00 | 0.00 | 0.00 | 54 | 1025.7 |
| 20260906105526 | 47 | 177 | 1.0 | 1.0 | 0.00 | 0.00 | 0.00 | 59 | 1025.6 |
| 20260906105022 | 48 | 173 | 0.0 | 0.0 | 0.00 | 0.00 | 0.00 | 60 | 1025.4 |
| 20260906104520 | 51 | 196 | 3.0 | 3.0 | 0.00 | 0.00 | 0.00 | 52 | 1025.7 |
| 20260906104015 | 51 | 227 | 2.0 | 2.0 | 0.00 | 0.00 | 0.00 | 51 | 1025.7 |
| 20260906103513 | 51 | 196 | 0.0 | 1.0 | 0.00 | 0.00 | 0.00 | 53 | 1025.6 |
| 20260906103009 | 52 | 220 | 1.0 | 2.0 | 0.00 | 0.00 | 0.00 | 51 | 1025.7 |
| 20260906102508 | 53 | 201 | 4.0 | 7.0 | 0.00 | 0.00 | 0.00 | 48 | 1025.6 |
| 20260906102008 | 52 | 213 | 3.0 | 4.0 | 0.00 | 0.00 | 0.00 | 50 | 1025.6 |
| 20260906101503 | 53 | 208 | 4.0 | 6.0 | 0.00 | 0.00 | 0.00 | 52 | 1025.4 |
| 20260906100959 | 53 | 203 | 4.0 | 6.0 | 0.00 | 0.00 | 0.00 | 49 | 1025.2 |
| 20260906100454 | 52 | 185 | 3.0 | 4.0 | 0.00 | 0.00 | 0.00 | 51 | 1025.4 |
| 20260906095953 | 51 | 204 | 4.0 | 7.0 | 0.00 | 0.00 | 0.00 | 54 | 1025.3 |
| 20260906095449 | 50 | 218 | 4.0 | 6.0 | 0.00 | 0.00 | 0.00 | 55 | 1025.3 |
| 20260906094944 | 50 | 215 | 4.0 | 4.0 | 0.00 | 0.00 | 0.00 | 55 | 1025.6 |
| 20260906094438 | 50 | 224 | 4.0 | 6.0 | 0.00 | 0.00 | 0.00 | 55 | 1025.4 |
| 20260906093934 | 50 | 197 | 3.0 | 4.0 | 0.00 | 0.00 | 0.00 | 55 | 1025.6 |
| 20260906093430 | 50 | 191 | 1.0 | 2.0 | 0.00 | 0.00 | 0.00 | 55 | 1025.3 |
| 20260906092930 | 50 | 238 | 0.0 | 1.0 | 0.00 | 0.00 | 0.00 | 55 | 1025.4 |
| 20260906092429 | 50 | 205 | 2.0 | 3.0 | 0.00 | 0.00 | 0.00 | 55 | 1025.4 |
| 20260906091925 | 51 | 200 | 3.0 | 3.0 | 0.00 | 0.00 | 0.00 | 54 | 1025.4 |
| 20260906091420 | 50 | 236 | 2.0 | 4.0 | 0.00 | 0.00 | 0.00 | 54 | 1025.4 |
| 20260906090918 | 50 | 210 | 4.0 | 4.0 | 0.00 | 0.00 | 0.00 | 57 | 1025.6 |
| 20260906090418 | 50 | 194 | 2.0 | 3.0 | 0.00 | 0.00 | 0.00 | 55 | 1025.3 |
| 20260906085912 | 50 | 178 | 2.0 | 2.0 | 0.00 | 0.00 | 0.00 | 56 | 1025.3 |
| 20260906085406 | 50 | 213 | 4.0 | 4.0 | 0.00 | 0.00 | 0.00 | 56 | 1025.2 |
| 20260906084906 | 50 | 199 | 3.0 | 4.0 | 0.00 | 0.00 | 0.00 | 55 | 1025.1 |
| 20260906084400 | 49 | 198 | 2.0 | 2.0 | 0.00 | 0.00 | 0.00 | 57 | 1025.1 |
| 20260906083854 | 50 | 181 | 2.0 | 2.0 | 0.00 | 0.00 | 0.00 | 55 | 1025.2 |
| 20260906083350 | 51 | 182 | 0.0 | 0.0 | 0.00 | 0.00 | 0.00 | 52 | 1025.1 |
| 20260906082849 | 53 | 181 | 1.0 | 1.0 | 0.00 | 0.00 | 0.00 | 49 | 1025.2 |
| 20260906082345 | 54 | 185 | 0.0 | 1.0 | 0.00 | 0.00 | 0.00 | 48 | 1025.1 |
| 20260906081841 | 53 | 221 | 3.0 | 3.0 | 0.00 | 0.00 | 0.00 | 50 | 1025.2 |
| 20260906081336 | 52 | 223 | 2.0 | 2.0 | 0.00 | 0.00 | 0.00 | 51 | 1025.3 |
| 20260906080832 | 51 | 200 | 2.0 | 3.0 | 0.00 | 0.00 | 0.00 | 53 | 1025.4 |
| 20260906080328 | 51 | 192 | 1.0 | 2.0 | 0.00 | 0.00 | 0.00 | 53 | 1025.4 |
| 20260906075827 | 51 | 205 | 1.0 | 1.0 | 0.00 | 0.00 | 0.00 | 54 | 1025.3 |
| 20260906075327 | 52 | 183 | 2.0 | 2.0 | 0.00 | 0.00 | 0.00 | 52 | 1025.7 |
| 20260906074823 | 53 | 187 | 2.0 | 3.0 | 0.00 | 0.00 | 0.00 | 50 | 1025.4 |
| 20260906074322 | 53 | 196 | 4.0 | 4.0 | 0.00 | 0.00 | 0.00 | 49 | 1025.3 |
| 20260906073822 | 53 | 218 | 4.0 | 4.0 | 0.00 | 0.00 | 0.00 | 49 | 1025.2 |
| 20260906073321 | 54 | 210 | 3.0 | 3.0 | 0.00 | 0.00 | 0.00 | 49 | 1025.2 |
| 20260906072818 | 54 | 211 | 5.0 | 7.0 | 0.00 | 0.00 | 0.00 | 49 | 1025.6 |
| 20260906072313 | 54 | 193 | 1.0 | 1.0 | 0.00 | 0.00 | 0.00 | 48 | 1025.4 |
| 20260906071809 | 55 | 191 | 4.0 | 6.0 | 0.00 | 0.00 | 0.00 | 47 | 1025.3 |
| 20260906071304 | 55 | 204 | 1.0 | 2.0 | 0.00 | 0.00 | 0.00 | 47 | 1025.3 |
| 20260906070801 | 55 | 211 | 4.0 | 6.0 | 0.00 | 0.00 | 0.00 | 44 | 1025.3 |
| 20260906070256 | 54 | 189 | 0.0 | 1.0 | 0.00 | 0.00 | 0.00 | 48 | 1025.3 |
| 20260906065755 | 54 | 269 | 1.0 | 3.0 | 0.00 | 0.00 | 0.00 | 49 | 1025.3 |
| 20260906065251 | 53 | 199 | 1.0 | 1.0 | 0.00 | 0.00 | 0.00 | 50 | 1025.4 |
| 20260906064746 | 53 | 189 | 1.0 | 1.0 | 0.00 | 0.00 | 0.00 | 49 | 1025.2 |
| 20260906064242 | 53 | 181 | 0.0 | 0.0 | 0.00 | 0.00 | 0.00 | 49 | 1025.1 |
| 20260906063737 | 54 | 175 | 1.0 | 2.0 | 0.00 | 0.00 | 0.00 | 48 | 1025.1 |
| 20260906063233 | 55 | 162 | 0.0 | 0.0 | 0.00 | 0.00 | 0.00 | 47 | 1025.1 |
| 20260906062728 | 55 | 176 | 1.0 | 1.0 | 0.00 | 0.00 | 0.00 | 47 | 1025.1 |
| 20260906062227 | 55 | 105 | 0.0 | 0.0 | 0.00 | 0.00 | 0.00 | 49 | 1025.0 |
| 20260906061723 | 57 | 193 | 0.0 | 0.0 | 0.00 | 0.00 | 0.00 | 42 | 1025.1 |
| 20260906061219 | 57 | 197 | 0.0 | 1.0 | 0.00 | 0.00 | 0.00 | 43 | 1025.0 |
| 20260906060714 | 57 | 219 | 1.0 | 1.0 | 0.00 | 0.00 | 0.00 | 44 | 1025.1 |
| 20260906060212 | 57 | 197 | 1.0 | 2.0 | 0.00 | 0.00 | 0.00 | 44 | 1024.7 |
| 20260906055707 | 57 | 195 | 0.0 | 1.0 | 0.00 | 0.00 | 0.00 | 43 | 1024.7 |
| 20260906055202 | 57 | 194 | 1.0 | 2.0 | 0.00 | 0.00 | 0.00 | 44 | 1024.8 |
| 20260906054658 | 58 | 202 | 1.0 | 1.0 | 0.00 | 0.00 | 0.00 | 43 | 1024.8 |
| 20260906054157 | 58 | 184 | 1.0 | 1.0 | 0.00 | 0.00 | 0.00 | 43 | 1024.8 |
| 20260906053649 | 58 | 166 | 1.0 | 1.0 | 0.00 | 0.00 | 0.00 | 43 | 1025.0 |
| 20260906053144 | 58 | 239 | 1.0 | 2.0 | 0.00 | 0.00 | 0.00 | 43 | 1024.8 |
| 20260906052639 | 58 | 201 | 2.0 | 2.0 | 0.00 | 0.00 | 0.00 | 43 | 1024.7 |
| 20260906052135 | 59 | 306 | 2.0 | 2.0 | 0.00 | 0.00 | 0.00 | 43 | 1024.8 |
| 20260906051631 | 60 | 200 | 1.0 | 1.0 | 0.00 | 0.00 | 0.00 | 42 | 1024.7 |
| 20260906051126 | 61 | 176 | 1.0 | 1.0 | 0.00 | 0.00 | 0.00 | 40 | 1024.8 |
| 20260906050622 | 62 | 213 | 1.0 | 2.0 | 0.00 | 0.00 | 0.00 | 39 | 1024.7 |
| 20260906050117 | 63 | 228 | 1.0 | 1.0 | 0.00 | 0.00 | 0.00 | 38 | 1024.8 |
| 20260906045615 | 63 | 236 | 2.0 | 2.0 | 0.00 | 0.00 | 0.00 | 38 | 1024.8 |
| 20260906045110 | 60 | 186 | 0.0 | 0.0 | 0.00 | 0.00 | 0.00 | 40 | 1024.8 |
| 20260906044606 | 59 | 171 | 0.0 | 0.0 | 0.00 | 0.00 | 0.00 | 44 | 1025.1 |
| 20260906044101 | 58 | 187 | 1.0 | 2.0 | 0.00 | 0.00 | 0.00 | 44 | 1024.8 |
| 20260906043557 | 58 | 178 | 0.0 | 0.0 | 0.00 | 0.00 | 0.00 | 47 | 1025.0 |
| 20260906043053 | 59 | 179 | 0.0 | 0.0 | 0.00 | 0.00 | 0.00 | 46 | 1024.7 |
| 20260906042551 | 64 | 180 | 1.0 | 1.0 | 0.00 | 0.00 | 0.00 | 42 | 1025.0 |
| 20260906042046 | 65 | 216 | 2.0 | 2.0 | 0.00 | 0.00 | 0.00 | 37 | 1025.0 |
| 20260906041543 | 64 | 191 | 1.0 | 2.0 | 0.00 | 0.00 | 0.00 | 37 | 1024.8 |
| 20260906041037 | 64 | 229 | 1.0 | 1.0 | 0.00 | 0.00 | 0.00 | 38 | 1024.7 |
| 20260906040532 | 63 | 291 | 2.0 | 3.0 | 0.00 | 0.00 | 0.00 | 39 | 1024.8 |
| 20260906040027 | 62 | 258 | 2.0 | 2.0 | 0.00 | 0.00 | 0.00 | 40 | 1024.7 |
| 20260906035517 | 62 | 198 | 1.0 | 1.0 | 0.00 | 0.00 | 0.00 | 41 | 1025.0 |
| 20260906035013 | 62 | 188 | 0.0 | 0.0 | 0.00 | 0.00 | 0.00 | 42 | 1024.8 |
| 20260906034512 | 62 | 211 | 1.0 | 1.0 | 0.00 | 0.00 | 0.00 | 42 | 1024.8 |
| 20260906034008 | 64 | 215 | 2.0 | 2.0 | 0.00 | 0.00 | 0.00 | 40 | 1024.7 |
| 20260906033503 | 66 | 239 | 2.0 | 2.0 | 0.00 | 0.00 | 0.00 | 37 | 1024.7 |
| 20260906032958 | 66 | 242 | 2.0 | 2.0 | 0.00 | 0.00 | 0.00 | 35 | 1024.7 |
| 20260906032454 | 65 | 181 | 0.0 | 0.0 | 0.00 | 0.00 | 0.00 | 36 | 1024.6 |
| 20260906031949 | 65 | 199 | 1.0 | 1.0 | 0.00 | 0.00 | 0.00 | 36 | 1024.5 |
| 20260906031444 | 65 | 178 | 1.0 | 1.0 | 0.00 | 0.00 | 0.00 | 37 | 1024.5 |
| 20260906030940 | 63 | 199 | 4.0 | 4.0 | 0.00 | 0.00 | 0.00 | 39 | 1024.6 |
| 20260906030434 | 64 | 213 | 1.0 | 2.0 | 0.00 | 0.00 | 0.00 | 40 | 1024.2 |
| 20260906025934 | 61 | 207 | 2.0 | 3.0 | 0.00 | 0.00 | 0.00 | 42 | 1024.3 |
| 20260906025428 | 60 | 191 | 1.0 | 2.0 | 0.00 | 0.00 | 0.00 | 46 | 1024.3 |
| 20260906024927 | 61 | 192 | 2.0 | 2.0 | 0.00 | 0.00 | 0.00 | 46 | 1024.3 |
| 20260906024427 | 62 | 176 | 2.0 | 2.0 | 0.00 | 0.00 | 0.00 | 44 | 1024.2 |
| 20260906023922 | 64 | 179 | 1.0 | 2.0 | 0.00 | 0.00 | 0.00 | 43 | 1024.0 |
| 20260906023419 | 65 | 163 | 2.0 | 3.0 | 0.00 | 0.00 | 0.00 | 40 | 1024.1 |
| 20260906022918 | 68 | 174 | 3.0 | 3.0 | 0.00 | 0.00 | 0.00 | 37 | 1024.0 |
| 20260906022413 | 71 | 200 | 3.0 | 3.0 | 0.00 | 0.00 | 0.00 | 32 | 1023.9 |
| 20260906021908 | 71 | 197 | 4.0 | 6.0 | 0.00 | 0.00 | 0.00 | 31 | 1024.0 |
| 20260906021408 | 71 | 182 | 1.0 | 1.0 | 0.00 | 0.00 | 0.00 | 31 | 1023.7 |
| 20260906020903 | 71 | 268 | 3.0 | 3.0 | 0.00 | 0.00 | 0.00 | 34 | 1023.6 |
| 20260906020403 | 71 | 201 | 2.0 | 3.0 | 0.00 | 0.00 | 0.00 | 33 | 1023.6 |
| 20260906015857 | 72 | 206 | 4.0 | 4.0 | 0.00 | 0.00 | 0.00 | 32 | 1023.7 |
| 20260906015356 | 72 | 187 | 2.0 | 2.0 | 0.00 | 0.00 | 0.00 | 31 | 1023.3 |
| 20260906014850 | 72 | 187 | 1.0 | 1.0 | 0.00 | 0.00 | 0.00 | 32 | 1023.3 |
| 20260906014350 | 72 | 198 | 1.0 | 2.0 | 0.00 | 0.00 | 0.00 | 32 | 1023.4 |
| 20260906013847 | 72 | 207 | 2.0 | 2.0 | 0.00 | 0.00 | 0.00 | 33 | 1023.1 |
| 20260906013342 | 73 | 217 | 2.0 | 3.0 | 0.00 | 0.00 | 0.00 | 35 | 1023.4 |
| 20260906012837 | 74 | 188 | 1.0 | 1.0 | 0.00 | 0.00 | 0.00 | 33 | 1023.3 |
| 20260906012332 | 76 | 171 | 1.0 | 1.0 | 0.00 | 0.00 | 0.00 | 30 | 1023.3 |
| 20260906011826 | 76 | 180 | 0.0 | 1.0 | 0.00 | 0.00 | 0.00 | 28 | 1023.1 |
| 20260906011321 | 77 | 205 | 1.0 | 2.0 | 0.00 | 0.00 | 0.00 | 29 | 1023.1 |
| 20260906010817 | 78 | 187 | 2.0 | 2.0 | 0.00 | 0.00 | 0.00 | 27 | 1023.3 |
| 20260906010313 | 78 | 214 | 1.0 | 2.0 | 0.00 | 0.00 | 0.00 | 26 | 1023.5 |
| 20260906005808 | 78 | 209 | 1.0 | 1.0 | 0.00 | 0.00 | 0.00 | 27 | 1023.1 |
| 20260906005307 | 77 | 190 | 1.0 | 2.0 | 0.00 | 0.00 | 0.00 | 28 | 1023.5 |
| 20260906004806 | 75 | 192 | 2.0 | 2.0 | 0.00 | 0.00 | 0.00 | 29 | 1023.6 |
| 20260906004301 | 75 | 208 | 1.0 | 2.0 | 0.00 | 0.00 | 0.00 | 31 | 1023.6 |
| 20260906003756 | 75 | 199 | 1.0 | 1.0 | 0.00 | 0.00 | 0.00 | 31 | 1023.1 |
| 20260906003251 | 75 | 185 | 1.0 | 1.0 | 0.00 | 0.00 | 0.00 | 31 | 1023.4 |
| 20260906002746 | 76 | 192 | 2.0 | 2.0 | 0.00 | 0.00 | 0.00 | 31 | 1023.4 |
| 20260906002247 | 77 | 205 | 3.0 | 3.0 | 0.00 | 0.00 | 0.00 | 29 | 1023.4 |
| 20260906001742 | 78 | 193 | 4.0 | 6.0 | 0.00 | 0.00 | 0.00 | 28 | 1023.3 |
| 20260906001237 | 78 | 190 | 2.0 | 2.0 | 0.00 | 0.00 | 0.00 | 27 | 1023.3 |
| 20260906000732 | 81 | 193 | 4.0 | 6.0 | 0.00 | 0.00 | 0.00 | 24 | 1023.4 |
| 20260906000234 | 81 | 201 | 5.0 | 7.0 | 0.00 | 0.00 | 0.00 | 23 | 1023.1 |
| 20260905235727 | 82 | 224 | 4.0 | 6.0 | 0.00 | 0.00 | 0.00 | 24 | 1023.1 |
| 20260905235221 | 81 | 188 | 2.0 | 2.0 | 0.00 | 0.00 | 0.00 | 23 | 1023.0 |
| 20260905234717 | 83 | 175 | 5.0 | 8.0 | 0.00 | 0.00 | 0.00 | 22 | 1023.0 |
| 20260905234212 | 82 | 147 | 3.0 | 3.0 | 0.00 | 0.00 | 0.00 | 22 | 1023.0 |
| 20260905233707 | 81 | 241 | 2.0 | 2.0 | 0.00 | 0.00 | 0.00 | 21 | 1023.1 |
| 20260905233207 | 79 | 299 | 3.0 | 3.0 | 0.00 | 0.00 | 0.00 | 22 | 1023.0 |
| 20260905232702 | 79 | 268 | 2.0 | 3.0 | 0.00 | 0.00 | 0.00 | 24 | 1023.1 |
| 20260905232157 | 79 | 160 | 0.0 | 1.0 | 0.00 | 0.00 | 0.00 | 23 | 1023.0 |
| 20260905231653 | 80 | 163 | 2.0 | 2.0 | 0.00 | 0.00 | 0.00 | 24 | 1023.0 |
| 20260905231148 | 82 | 195 | 3.0 | 4.0 | 0.00 | 0.00 | 0.00 | 21 | 1023.0 |
| 20260905230639 | 86 | 243 | 2.0 | 3.0 | 0.00 | 0.00 | 0.00 | 21 | 1022.9 |